Location: ?
(35.4064°N, 139.3593°E)
Time: 16:28:59
(UTC+00:00)

Hubble Space Telescope - Pass Details

Date: 30 June 2024
Orbit: 509 x 513 km, 28.5° (Epoch: 23 July)

Event Time Altitude Azimuth Distance (km) Brightness Sun altitude
Exits shadow 17:51:01 25° 175° (S) 1,044 1.9 -17.0°
Maximum altitude 17:51:09 25° 171° (S) 1,042 1.9 -17.0°
Drops below altitude 10° 17:54:28 10° 114° (ESE) 1,720 3.6 -16.5°
Sets 17:56:57 0° 102° (ESE) 2,604 4.8 -16.1°
